Dublin, Ireland

1:12 PM IST on July 30, 2016 (GMT +0100)
Dublin

Weather History for 03969 - October, 2012

Change the Weather History Date:

Sunday, October 14, 2012

  Actual Average Record
Temperature  
Mean Temperature 44 °F -  
Max Temperature 50 °F 54 °F - ()
Min Temperature 39 °F 43 °F - ()
Degree Days  
Heating Degree Days 20    
Moisture  
Dew Point 43 °F    
Average Humidity 94    
Maximum Humidity 100    
Minimum Humidity 87    
Precipitation  
Precipitation 0.16 in 0.09 in - ()
Sea Level Pressure  
Sea Level Pressure 29.62 in    
Wind  
Wind Speed 8 mph ()    
Max Wind Speed 15 mph    
Max Gust Speed -    
Visibility 6.1 miles    
Events Fog , Rain    
T = Trace of Precipitation, MM = Missing Value Source: Averaged Metar Reports

Daily Weather History Graph

Daily Weather History Graph

Search for Another Location

Airport or City:

Trip Planner

Search our weather history database for the weather conditions in past years. The results will help you decide how hot, cold, wet, or windy it might be!

Date:

Astronomy

Oct. 14, 2012 Rise Set
Actual Time 7:50 AM IST 6:30 PM IST
Civil Twilight 7:15 AM IST 7:05 PM IST
Nautical Twilight 6:35 AM IST 7:45 PM IST
Astronomical Twilight 5:54 AM IST 8:26 PM IST
Moon 6:29 AM IST (10/14) 5:41 PM IST (10/14)
Length of Visible Light 11h 49m
Length of Day
10h 39m
Waning Crescent, 2% of the Moon is Illuminated
Oct 14
Waning Crescent
Oct 15
New
Oct 22
First Quarter
Oct 29
Full
Nov 7
Last Quarter

Hourly Weather History & Observations

Time (IST) Temp. Windchill Dew Point Humidity Pressure Visibility Wind Dir Wind Speed Gust Speed Precip Events Conditions
12:00 AM 41.0 °F 36.4 °F 39.2 °F 93% 29.62 in 6.2 mi WSW 6.9 mph - N/A   Partly Cloudy
12:30 AM 41.0 °F 35.2 °F 39.2 °F 93% 29.62 in 6.2 mi WSW 9.2 mph - N/A   Scattered Clouds
1:00 AM 41.0 °F 35.2 °F 39.2 °F 93% 29.62 in 6.2 mi WSW 9.2 mph - N/A   Mostly Cloudy
1:30 AM 41.0 °F 35.8 °F 39.2 °F 93% 29.62 in 6.2 mi WSW 8.1 mph - N/A   Mostly Cloudy
2:00 AM 41.0 °F 35.8 °F 39.2 °F 93% 29.62 in 6.2 mi WSW 8.1 mph - N/A   Mostly Cloudy
2:30 AM 41.0 °F 35.8 °F 39.2 °F 93% 29.62 in 6.2 mi WSW 8.1 mph - N/A   Mostly Cloudy
3:00 AM 41.0 °F 35.8 °F 39.2 °F 93% 29.62 in 6.2 mi WSW 8.1 mph - N/A   Scattered Clouds
3:30 AM 41.0 °F 34.7 °F 39.2 °F 93% 29.62 in 6.2 mi West 10.4 mph - N/A   Mostly Cloudy
4:00 AM 42.8 °F 37.0 °F 39.2 °F 87% 29.59 in 6.2 mi WSW 10.4 mph - N/A   Mostly Cloudy
4:30 AM 41.0 °F 35.2 °F 39.2 °F 93% 29.62 in 6.2 mi West 9.2 mph - N/A   Mostly Cloudy
5:00 AM 42.8 °F 37.5 °F 39.2 °F 87% 29.59 in 6.2 mi WSW 9.2 mph - N/A   Mostly Cloudy
5:30 AM 42.8 °F 37.0 °F 39.2 °F 87% 29.59 in 6.2 mi WSW 10.4 mph - N/A   Mostly Cloudy
6:00 AM 42.8 °F 36.6 °F 39.2 °F 87% 29.62 in 6.2 mi WSW 11.5 mph - N/A   Mostly Cloudy
6:30 AM 42.8 °F 37.0 °F 39.2 °F 87% 29.59 in 6.2 mi WSW 10.4 mph - N/A   Mostly Cloudy
7:00 AM 42 °F - 40 °F 90% 29.63 in 19 mi WSW 11.2 mph - -   Mostly Cloudy
7:00 AM 42.8 °F 37.0 °F 41.0 °F 93% 29.59 in 6.2 mi WSW 10.4 mph - N/A   Mostly Cloudy
7:30 AM 41.0 °F 34.7 °F 39.2 °F 93% 29.62 in 6.2 mi WSW 10.4 mph - N/A   Mostly Cloudy
8:00 AM 42.8 °F 37.0 °F 41.0 °F 93% 29.62 in 6.2 mi WSW 10.4 mph - N/A Rain Light Rain
8:30 AM 42.8 °F 37.0 °F 41.0 °F 93% 29.62 in 4.3 mi WSW 10.4 mph - N/A Rain Light Rain
9:00 AM 41.0 °F 34.7 °F 41.0 °F 100% 29.59 in 3.1 mi SW 10.4 mph - N/A Rain Light Rain
9:30 AM 42.8 °F 37.0 °F 41.0 °F 93% 29.59 in 6.2 mi WSW 10.4 mph - N/A Rain Light Rain
10:00 AM 42.8 °F 35.8 °F 41.0 °F 93% 29.59 in 6.2 mi West 13.8 mph - N/A Rain Light Rain
10:30 AM 42.8 °F 35.4 °F 41.0 °F 93% 29.59 in 6.2 mi West 15.0 mph - N/A   Light Drizzle
11:00 AM 42.8 °F 36.2 °F 42.8 °F 100% 29.62 in 6.2 mi West 12.7 mph - N/A Rain Light Rain
11:30 AM 44.6 °F 38.1 °F 42.8 °F 93% 29.62 in 6.2 mi West 13.8 mph - N/A   Light Drizzle
12:00 PM 46.4 °F 40.7 °F 44.6 °F 93% 29.62 in 6.2 mi West 12.7 mph - N/A   Light Drizzle
12:30 PM 46.4 °F 41.1 °F 44.6 °F 93% 29.59 in 6.2 mi West 11.5 mph - N/A   Mostly Cloudy
1:00 PM 48 °F - 46 °F 90% 29.63 in 11 mi West 11.2 mph - - Rain Light Rain
1:00 PM 48.2 °F - 46.4 °F 93% 29.62 in 6.2 mi West 11.5 mph - N/A   Mostly Cloudy
1:30 PM 48.2 °F - 46.4 °F 93% 29.62 in 6.2 mi West 11.5 mph - N/A   Mostly Cloudy
2:00 PM 48.2 °F - 46.4 °F 93% 29.62 in 6.2 mi West 12.7 mph - N/A   Mostly Cloudy
2:30 PM 50.0 °F - 48.2 °F 94% 29.62 in 6.2 mi WNW 10.4 mph - N/A   Mostly Cloudy
3:00 PM 50.0 °F - 48.2 °F 94% 29.62 in 6.2 mi WNW 8.1 mph - N/A   Mostly Cloudy
3:30 PM 50.0 °F - 48.2 °F 94% 29.62 in 6.2 mi West 9.2 mph - N/A   Mostly Cloudy
4:00 PM 50.0 °F - 48.2 °F 94% 29.62 in 6.2 mi West 10.4 mph - N/A   Mostly Cloudy
4:30 PM 50.0 °F - 48.2 °F 94% 29.62 in 6.2 mi West 8.1 mph - N/A   Light Drizzle
5:00 PM 50.0 °F - 48.2 °F 94% 29.62 in 6.2 mi NW 5.8 mph - N/A Rain Light Rain
5:30 PM 48.2 °F - 48.2 °F 100% 29.62 in 3.1 mi NE 6.9 mph - N/A Rain Light Rain
6:00 PM 48.2 °F - 46.4 °F 93% 29.62 in 3.1 mi NE 6.9 mph - N/A Rain Light Rain
6:30 PM 48.2 °F - 46.4 °F 93% 29.62 in 4.3 mi NE 4.6 mph - N/A Rain Light Rain
7:00 PM 47 °F - 46 °F 95% 29.65 in 7 mi North 4.5 mph - - Rain Light Rain
7:00 PM 46.4 °F 45.2 °F 46.4 °F 100% 29.62 in 4.3 mi Variable 3.5 mph - N/A Rain Light Rain
7:30 PM 46.4 °F 44.3 °F 46.4 °F 100% 29.65 in 6.2 mi NNW 4.6 mph - N/A   Mostly Cloudy
8:00 PM 46.4 °F 44.3 °F 46.4 °F 100% 29.65 in 6.2 mi WNW 4.6 mph - N/A   Mostly Cloudy
8:30 PM 46.4 °F 45.2 °F 44.6 °F 93% 29.65 in 6.2 mi Variable 3.5 mph - N/A   Mostly Cloudy
9:00 PM 46.4 °F 45.2 °F 44.6 °F 93% 29.65 in 6.2 mi NNW 3.5 mph - N/A   Mostly Cloudy
9:30 PM 44.6 °F 43.1 °F 44.6 °F 100% 29.62 in 6.2 mi Variable 3.5 mph - N/A Fog Shallow Fog
10:00 PM 44.6 °F 41.4 °F 44.6 °F 100% 29.65 in 3.7 mi WNW 5.8 mph - N/A Fog Fog
10:30 PM 44.6 °F 41.4 °F 44.6 °F 100% 29.62 in 2.8 mi WNW 5.8 mph - N/A   Mostly Cloudy
11:00 PM 46.4 °F 42.9 °F 44.6 °F 93% 29.62 in 3.7 mi WNW 6.9 mph - N/A   Mostly Cloudy
11:30 PM 44.6 °F 40.2 °F 44.6 °F 100% 29.65 in 6.2 mi WNW 8.1 mph - N/A   Mostly Cloudy